Weather in Engelberg

Switzerland     46°49′15″N   8°24′15″E
temp.,
°C
wind,
m/s
gust,
m/s
humid.,
%
clouds,
%
prec.,
mm/h
press.,
hPa
HPBL,
m
20 june, sun
sun2023:00+12sse438299 0.2 101734
02:00+11s448521 0.2 101737
05:00+10sse2285100 0.1 101618
08:00+13se3378100 0.1 1015205
11:00+16sse2366100 0.3 1014955
14:00+18se4652100 1.1 10111651
17:00+16s4562100 0.4 1008855
20:00+10sse568992 19.2 1012188
21 june, mon
mon2123:00+11sse569169 4.5 1011157
02:00+10sse349081 5.3 101165
05:00+8s228839 0.3 101119
08:00+11ese01833 0.6 1011235
11:00+14ese13674 0.9 1010861
14:00+15e135942 2.7 10101170
17:00+15ese136230 2.0 1010979
20:00+13se12737 3.6 1011476
22 june, tue
tue2223:00+9sse338740 0.1 101329
02:00+8sse33874 0.1 101323
05:00+7sse11915 0.0 101310
08:00+11e23815 0.4 1012324
11:00+14se246333 0.9 10111242
14:00+15sse355513 2.1 10121694
17:00+15s255372 1.1 10121681
20:00+10n1186100 3.2 1016174
23 june, wed
wed2323:00+7wnw119023 0.4 101719
02:00+8nne119399 0.9 101860
05:00+8ese119239 0.6 101735
08:00+10ese12795 0.8 1017246
11:00+12e137033 1.6 1016890
14:00+14sse136432 4.1 10161164
17:00+14sse255991 1.8 10161321
20:00+11s2274100 4.5 1018136
24 june, thu
thu2423:00+9sse349197 1.9 1019134
02:00+7sse44891 2.1 101948
05:00+6s33880 0.0 101826
08:00+9s1278100 0.8 1017196
11:00+10nnw1174100 2.9 1018669
14:00+10n2280100 5.9 1019576
17:00+8nw2294100 4.5 1020219
20:00+9nnw1182100 7.9 1021341